Ozona, TX

9:49 AM CST on December 16, 2017 (GMT -0600)
Ozona Municipal

Weather History for KOZA - November, 2013

Change the Weather History Date:

Thursday, November 21, 2013

  Actual Average Record
Temperature  
Mean Temperature 66 °F -  
Max Temperature 77 °F 65 °F 77 °F (2013)
Min Temperature 53 °F 35 °F 28 °F (2015)
Cooling Degree Days 1    
Growing Degree Days 16 (Base 50)    
Moisture  
Dew Point 61 °F    
Average Humidity 81    
Maximum Humidity 94    
Minimum Humidity 57    
Precipitation  
Precipitation 0.00 in - - ()
Sea Level Pressure  
Sea Level Pressure 30.02 in    
Wind  
Wind Speed 10 mph (South)    
Max Wind Speed 23 mph    
Max Gust Speed 31 mph    
Visibility 9 miles    
Events      
Averages and records for this station are not official NWS values.
T = Trace of Precipitation, MM = Missing Value Source: NWS Daily Summary

Daily Weather History Graph

Daily Weather History Graph

Search for Another Location

Airport or City:

Trip Planner

Search our weather history database for the weather conditions in past years. The results will help you decide how hot, cold, wet, or windy it might be!

Date:

Astronomy

Nov. 21, 2013 Rise Set
Actual Time 7:16 AM CST 5:44 PM CST
Civil Twilight 6:50 AM CST 6:10 PM CST
Nautical Twilight 6:21 AM CST 6:39 PM CST
Astronomical Twilight 5:52 AM CST 7:08 PM CST
Moon 9:20 PM CST (11/21) 10:25 AM CST (11/21)
Length of Visible Light 11h 19m
Length of Day
10h 28m
Waning Gibbous, 85% of the Moon is Illuminated
Nov 21
Waning Gibbous
Nov 25
Last Quarter
Dec 2
New
Dec 9
First Quarter
Dec 17
Full

Hourly Weather History & Observations

Time (CST) Temp. Dew Point Humidity Pressure Visibility Wind Dir Wind Speed Gust Speed Precip Events Conditions
12:15 AM 64.4 °F 60.8 °F 88% 29.95 in 10.0 mi South 9.2 mph 18.4 mph N/A   Overcast
12:35 AM 64.4 °F 60.8 °F 88% 29.95 in 10.0 mi South 11.5 mph 16.1 mph N/A   Overcast
12:55 AM 64.4 °F 62.6 °F 94% 29.95 in 10.0 mi South 12.7 mph 18.4 mph N/A   Overcast
1:15 AM 64.4 °F 62.6 °F 94% 29.95 in 10.0 mi South 13.8 mph 21.9 mph N/A   Overcast
1:35 AM 66.2 °F 62.6 °F 88% 29.95 in 10.0 mi South 12.7 mph 20.7 mph N/A   Overcast
1:55 AM 66.2 °F 62.6 °F 88% 29.95 in 10.0 mi SSW 11.5 mph 21.9 mph N/A   Overcast
2:15 AM 66.2 °F 62.6 °F 88% 29.95 in 10.0 mi South 11.5 mph 20.7 mph N/A   Mostly Cloudy
2:35 AM 66.2 °F 62.6 °F 88% 29.95 in 10.0 mi South 13.8 mph 19.6 mph N/A   Overcast
2:55 AM 66.2 °F 62.6 °F 88% 29.96 in 10.0 mi South 12.7 mph 23.0 mph N/A   Mostly Cloudy
3:15 AM 66.2 °F 62.6 °F 88% 29.95 in 10.0 mi South 10.4 mph 18.4 mph N/A   Mostly Cloudy
3:35 AM 66.2 °F 62.6 °F 88% 29.95 in 10.0 mi South 6.9 mph - N/A   Overcast
3:55 AM 66.2 °F 62.6 °F 88% 29.95 in 10.0 mi South 9.2 mph - N/A   Mostly Cloudy
4:15 AM 64.4 °F 62.6 °F 94% 29.95 in 10.0 mi South 10.4 mph - N/A   Mostly Cloudy
4:35 AM 64.4 °F 62.6 °F 94% 29.95 in 10.0 mi South 9.2 mph - N/A   Scattered Clouds
4:55 AM 64.4 °F 62.6 °F 94% 29.95 in 10.0 mi South 8.1 mph - N/A   Mostly Cloudy
5:15 AM 64.4 °F 62.6 °F 94% 29.95 in 10.0 mi South 8.1 mph - N/A   Mostly Cloudy
5:35 AM 64.4 °F 62.6 °F 94% 29.96 in 10.0 mi South 8.1 mph - N/A   Mostly Cloudy
5:55 AM 64.4 °F 62.6 °F 94% 29.97 in 10.0 mi South 10.4 mph - N/A   Scattered Clouds
6:15 AM 64.4 °F 62.6 °F 94% 29.97 in 10.0 mi South 8.1 mph - N/A   Scattered Clouds
6:35 AM 64.4 °F 62.6 °F 94% 29.98 in 10.0 mi South 6.9 mph - N/A   Scattered Clouds
6:55 AM 64.4 °F 62.6 °F 94% 29.98 in 7.0 mi South 5.8 mph - N/A   Scattered Clouds
7:15 AM 64.4 °F 62.6 °F 94% 30.00 in 7.0 mi SSW 6.9 mph - N/A   Scattered Clouds
7:35 AM 64.4 °F 62.6 °F 94% 30.00 in 7.0 mi South 8.1 mph - N/A   Scattered Clouds
7:55 AM 64.4 °F 62.6 °F 94% 30.00 in 5.0 mi South 9.2 mph - N/A   Scattered Clouds
8:15 AM 66.2 °F 62.6 °F 88% 30.02 in 5.0 mi SSW 9.2 mph - N/A   Scattered Clouds
8:35 AM 66.2 °F 62.6 °F 88% 30.02 in 5.0 mi South 9.2 mph - N/A   Scattered Clouds
8:55 AM 68.0 °F 62.6 °F 83% 30.02 in 5.0 mi South 12.7 mph 17.3 mph N/A   Scattered Clouds
9:15 AM 68.0 °F 62.6 °F 83% 30.03 in 5.0 mi South 10.4 mph - N/A   Haze
9:35 AM 68.0 °F 62.6 °F 83% 30.04 in 7.0 mi South 10.4 mph 19.6 mph N/A   Scattered Clouds
9:55 AM 69.8 °F 62.6 °F 78% 30.05 in 10.0 mi SSW 12.7 mph 21.9 mph N/A   Mostly Cloudy
10:15 AM 69.8 °F 62.6 °F 78% 30.04 in 10.0 mi SSW 12.7 mph 17.3 mph N/A   Scattered Clouds
10:35 AM 69.8 °F 62.6 °F 78% 30.05 in 10.0 mi South 13.8 mph 20.7 mph N/A   Scattered Clouds
10:55 AM 69.8 °F 62.6 °F 78% 30.05 in 10.0 mi South 13.8 mph - N/A   Scattered Clouds
11:15 AM 69.8 °F 60.8 °F 73% 30.05 in 10.0 mi South 13.8 mph - N/A   Scattered Clouds
11:35 AM 69.8 °F 62.6 °F 78% 30.05 in 10.0 mi SSW 10.4 mph - N/A   Mostly Cloudy
11:55 AM 69.8 °F 60.8 °F 73% 30.04 in 10.0 mi South 12.7 mph 19.6 mph N/A   Scattered Clouds
12:15 PM 73.4 °F 60.8 °F 65% 30.03 in 10.0 mi South 11.5 mph 20.7 mph N/A   Clear
12:35 PM 73.4 °F 60.8 °F 65% 30.02 in 10.0 mi South 13.8 mph - N/A   Scattered Clouds
12:55 PM 71.6 °F 60.8 °F 69% 30.02 in 10.0 mi South 9.2 mph 18.4 mph N/A   Scattered Clouds
1:15 PM 71.6 °F 60.8 °F 69% 30.01 in 10.0 mi South 11.5 mph - N/A   Scattered Clouds
1:35 PM 73.4 °F 60.8 °F 65% 30.00 in 10.0 mi South 9.2 mph - N/A   Scattered Clouds
1:55 PM 75.2 °F 60.8 °F 61% 30.00 in 10.0 mi SSW 10.4 mph 16.1 mph N/A   Scattered Clouds
2:15 PM 73.4 °F 60.8 °F 65% 29.99 in 10.0 mi South 13.8 mph 18.4 mph N/A   Scattered Clouds
2:35 PM 75.2 °F 60.8 °F 61% 29.99 in 10.0 mi South 11.5 mph 17.3 mph N/A   Scattered Clouds
2:55 PM 73.4 °F 60.8 °F 65% 30.00 in 10.0 mi South 11.5 mph - N/A   Scattered Clouds
3:15 PM 77.0 °F 60.8 °F 57% 29.99 in 10.0 mi South 12.7 mph - N/A   Scattered Clouds
3:35 PM 75.2 °F 60.8 °F 61% 30.00 in 10.0 mi South 12.7 mph - N/A   Clear
3:55 PM 73.4 °F 60.8 °F 65% 30.00 in 10.0 mi South 8.1 mph - N/A   Clear
4:15 PM 73.4 °F 60.8 °F 65% 30.00 in 10.0 mi South 9.2 mph - N/A   Clear
4:35 PM 71.6 °F 60.8 °F 69% 30.01 in 10.0 mi South 8.1 mph - N/A   Clear
4:55 PM 73.4 °F 60.8 °F 65% 30.01 in 10.0 mi South 8.1 mph - N/A   Clear
5:15 PM 71.6 °F 60.8 °F 69% 30.02 in 10.0 mi South 6.9 mph - N/A   Clear
5:35 PM 71.6 °F 60.8 °F 69% 30.03 in 10.0 mi SSW 5.8 mph - N/A   Clear
5:55 PM 69.8 °F 60.8 °F 73% 30.03 in 10.0 mi South 5.8 mph - N/A   Clear
6:15 PM 69.8 °F 60.8 °F 73% 30.04 in 10.0 mi Calm Calm - N/A   Clear
6:35 PM 68.0 °F 60.8 °F 78% 30.05 in 10.0 mi Calm Calm - N/A   Clear
6:55 PM 68.0 °F 60.8 °F 78% 30.06 in 10.0 mi Calm Calm - N/A   Clear
7:15 PM 66.2 °F 60.8 °F 83% 30.07 in 10.0 mi Calm Calm - N/A   Clear
7:35 PM 64.4 °F 60.8 °F 88% 30.08 in 10.0 mi Calm Calm - N/A   Clear
7:55 PM 64.4 °F 60.8 °F 88% 30.08 in 7.0 mi Calm Calm - N/A   Clear
8:15 PM 62.6 °F 60.8 °F 94% 30.09 in 7.0 mi Calm Calm - N/A   Clear
8:35 PM 62.6 °F 59.0 °F 88% 30.09 in 7.0 mi Calm Calm - N/A   Clear
8:55 PM 62.6 °F 59.0 °F 88% 30.10 in 7.0 mi Calm Calm - N/A   Clear
9:15 PM 62.6 °F 60.8 °F 94% 30.10 in 7.0 mi Calm Calm - N/A   Clear
9:35 PM 62.6 °F 60.8 °F 94% 30.11 in 7.0 mi NE 3.5 mph - N/A   Clear
9:55 PM 64.4 °F 60.8 °F 88% 30.11 in 7.0 mi Calm Calm - N/A   Clear
10:15 PM 64.4 °F 62.6 °F 94% 30.12 in 7.0 mi Calm Calm - N/A   Clear
10:35 PM 64.4 °F 62.6 °F 94% 30.12 in 7.0 mi East 3.5 mph - N/A   Scattered Clouds
10:55 PM 64.4 °F 53.6 °F 68% 30.14 in 10.0 mi NE 23.0 mph 29.9 mph N/A   Scattered Clouds
11:15 PM 55.4 °F 44.6 °F 67% 30.16 in 10.0 mi NE 13.8 mph 26.5 mph N/A   Overcast
11:35 PM 55.4 °F 44.6 °F 67% 30.16 in 10.0 mi NNE 19.6 mph 25.3 mph N/A   Overcast
11:55 PM 53.6 °F 41.0 °F 62% 30.18 in 10.0 mi NE 20.7 mph 31.1 mph N/A   Overcast